Location: NJAA Observatory
(40.6819°N, 74.8979°W)
Time: 00:38:55
(UTC-04:00)

Cosmos 2237 Rocket - Visible Passes

Search period start: 07 July 2015 00:00
Search period end: 17 July 2015 00:00
Orbit: 836 x 849 km, 71.0° (Epoch: 06 July)

Date Brightness Start Highest point End Pass type
(mag) Time Alt. Az. Time Alt. Az. Time Alt. Az.
07 Jul 2.9 00:02:24 10° N 00:07:43 42° ENE 00:09:03 37° E visible
07 Jul 3.5 01:46:57 10° NW 01:50:51 26° W 01:50:51 26° W visible
07 Jul 3.0 23:47:38 10° N 23:52:55 40° ENE 23:54:20 35° E visible
08 Jul 3.4 01:32:05 10° NW 01:36:09 27° W 01:36:09 27° W visible
08 Jul 3.1 23:32:52 10° N 23:38:06 39° ENE 23:39:39 32° E visible
09 Jul 3.4 01:17:13 10° NW 01:21:28 29° W 01:21:28 29° W visible
09 Jul 3.1 23:18:06 10° N 23:23:17 37° ENE 23:25:01 30° E visible
10 Jul 3.3 01:02:22 10° NW 01:06:50 30° W 01:06:50 30° W visible
10 Jul 3.2 23:03:20 10° N 23:08:28 35° ENE 23:10:25 28° E visible
11 Jul 3.2 00:47:31 10° NW 00:52:13 32° W 00:52:13 32° W visible
11 Jul 3.2 22:48:35 10° N 22:53:38 34° ENE 22:55:50 25° E visible
12 Jul 3.1 00:32:40 10° NW 00:37:39 34° WSW 00:37:39 34° WSW visible
12 Jul 3.3 22:33:49 10° N 22:38:49 32° ENE 22:41:18 23° E visible
13 Jul 3.1 00:17:49 10° NW 00:22:56 36° WSW 00:23:07 36° WSW visible
13 Jul 3.3 22:19:03 10° N 22:24:00 31° NE 22:26:47 21° ESE visible
14 Jul 3.0 00:03:00 10° NW 00:08:09 38° WSW 00:08:36 37° WSW visible
14 Jul 3.4 22:04:18 10° N 22:09:10 30° NE 22:12:18 18° ESE visible
14 Jul 2.9 23:48:09 10° NW 23:53:22 39° WSW 23:54:08 37° SW visible
15 Jul 3.4 21:49:33 10° N 21:54:21 29° NE 21:57:52 16° ESE visible
15 Jul 2.9 23:33:19 10° NW 23:38:35 42° WSW 23:39:42 37° SW visible
16 Jul 3.5 21:34:48 10° N 21:39:31 27° NE 21:43:28 14° ESE visible
16 Jul 2.9 23:18:29 10° NW 23:23:48 44° WSW 23:25:17 36° SW visible
